Location: Joplin
(37.0842°N, 94.5131°W)
Time: 15:14:42
(UTC-06:00)

ISS - Pass Details

Date: 24 January 2019
Orbit: 403 x 411 km, 51.6° (Epoch: 22 February)

Event Time Altitude Azimuth Distance (km) Brightness Sun altitude
Rises 18:24:02 0° 242° (WSW) 2,318 1.9 -10.2°
Reaches altitude 10° 18:26:09 10° 249° (WSW) 1,463 0.6 -10.6°
Maximum altitude 18:29:19 45° 323° (NW) 566 -3.0 -11.2°
Enters shadow 18:32:03 13° 36° (NE) 1,293 -1.7 -11.7°
